Regional Weather Roundup
Issued by NWS

Home | Current Version | Previous Version | Graphics & Text | Print | Product List | Glossary On
Versions: 1 2 3 4 5 6 7 8 9 10 11 12 13 14 15 16 17 18 19 20 21 22 23 24 25 26 27 28 29 30 31 32 33 34 35 36 37 38 39 40 41 42 43 44 45 46 47 48 49 50
000
ASUS43 KMKX 301120
RWRWI

WISCONSIN REGIONAL WEATHER ROUNDUP
NATIONAL WEATHER SERVICE MILWAUKEE/SULLIVAN WI
600 AM CDT MON MAR 30 2015

NOTE: "FAIR" INDICATES FEW OR NO CLOUDS BELOW 12,000 FEET WITH NO
SIGNIFICANT WEATHER AND/OR OBSTRUCTIONS TO VISIBILITY.

WIZ001-002-006>008-014>016-023>028-301200-
NORTHWEST WISCONSIN

CITY           SKY/WX    TMP DP  RH WIND       PRES   REMARKS
SUPERIOR ARPT  CLEAR     31  26  80 SW9       29.91R WCI  23
ASHLAND        CLEAR     33  25  72 SW7       29.89R WCI  27
HAYWARD        CLEAR     31  24  75 CALM      29.91R
SIREN          PTCLDY    31  24  76 W7        29.93R WCI  25
CUMBERLAND     CLEAR     32  25  74 W5        29.92S WCI  27
RICE LAKE      CLEAR     31  25  77 SW3       29.94R
CHETEK         CLEAR     33  26  75 W3        29.92S
LADYSMITH      CLEAR     31  25  79 W3        29.93R
EAU CLAIRE     MOCLDY    30  24  78 SW6       29.94R WCI  24
MENOMONIE      PTCLDY    35  26  69 SW6       29.94R WCI  30
NEW RICHMOND   MOCLDY    32  26  80 CALM      29.95R
OSCEOLA        MOCLDY    30  28  90 CALM      29.97R
$$

WIZ003>005-009-010-017-018-301200-
NORTH CENTRAL WISCONSIN

CITY           SKY/WX    TMP DP  RH WIND       PRES   REMARKS
MANITOWISH WTR CLEAR     30  26  83 W7        29.84R WCI  23
ARBOR VITAE    CLEAR     33  27  77 W6        29.84R WCI  27
WOODRUFF       CLEAR     33  27  77 W6        29.84R WCI  27
RHINELANDER    CLEAR     30  25  81 W10       29.84R WCI  21
EAGLE RIVER    CLEAR     32  24  72 W9        29.82R WCI  24
LAND O LAKES   CLEAR     32  26  78 W5        29.82R WCI  27
PHILLIPS       PTCLDY    31  25  78 W5        29.88R WCI  26
TOMAHAWK       CLEAR     32  25  74 W10       29.86R WCI  24
MEDFORD        CLEAR     33  26  76 W10       29.90R WCI  24
MERRILL        CLEAR     32  27  81 W8        29.88R WCI  24
$$

WIZ029-030-035-036-043>047-301200-
CENTRAL WISCONSIN

CITY           SKY/WX    TMP DP  RH WIND       PRES   REMARKS
WAUSAU         CLEAR     33  26  75 NW12      29.87R WCI  24
MOSINEE        CLEAR     32  27  80 CALM      29.90R
MARSHFIELD     CLEAR     34  25  69 W8        29.91R WCI  27
STEVENS POINT  CLEAR     32  25  74 W6        29.91R WCI  27
WAUPACA        CLEAR     36  27  70 W10       29.91R WCI  29
WAUTOMA        CLEAR     34  27  76 W7        29.93R WCI  28
WISC RAPIDS    CLEAR     33  24  69 W6        29.94R WCI  28
CAMP DOUGLAS   CLEAR     32  28  85 W8        29.95R WCI  25
$$

WIZ011>013-019>022-031-037>040-048>050-301200-
NORTHEAST WISCONSIN

CITY           SKY/WX    TMP DP  RH WIND       PRES   REMARKS
ANTIGO         CLEAR     32  27  80 W12       29.85R WCI  23
SHAWANO        CLEAR     35  28  75 W7        29.87R WCI  29
OCONTO         CLEAR     35  28  75 W13G18    29.83R WCI  26
STURGEON BAY   CLEAR     36  27  69 W13       29.84R WCI  27
GREEN BAY      CLEAR     36  28  73 W13       29.87R WCI  27
MANITOWOC      CLEAR     37  29  72 W13       29.87R WCI  29
APPLETON       PTCLDY    34  27  75 W10       29.89R WCI  26
CLINTONVILLE   CLEAR     34  28  80 W9        29.88R WCI  26
OSHKOSH        CLEAR     35  26  69 W8        29.91R WCI  29
$$

WIZ032>034-041-042-053>061-301200-
SOUTHWEST WISCONSIN

CITY           SKY/WX    TMP DP  RH WIND       PRES   REMARKS
LA CROSSE      PTCLDY    36  27  69 SE7       29.98S WCI  30
SPARTA         CLOUDY    31  26  83 CALM      29.98R
VIROQUA        PTCLDY    34  28  77 SW8       29.97S WCI  27
BOSCOBEL       CLEAR     31  26  82 SW5       30.01R WCI  26
PRAIRIE DU CHI CLEAR     35  27  74 CALM      30.02R
PLATTEVILLE    CLEAR     33  28  83 S3        30.01R
$$

WIZ056-057-062-063-064-067-068-301200-
SOUTH CENTRAL WISCONSIN

CITY           SKY/WX    TMP DP  RH WIND       PRES   REMARKS
REEDSBURG      CLEAR     29  26  90 CALM      29.97R
BARABOO/DELLS  CLEAR     36  27  70 W8        29.96R WCI  29
LONE ROCK      PTCLDY    35  27  72 W7        30.00R WCI  29
MINERAL POINT  CLEAR     34  28  80 W6        29.99R WCI  29
MADISON        CLEAR     36  27  69 VRB3      29.97R
MIDDLETON      CLEAR     35  27  74 W5        29.98R WCI  30
WATERTOWN      CLEAR     33  28  85 W5        29.96R WCI  28
MONROE         CLEAR     34  30  86 W14       29.99R WCI  24
JANESVILLE     CLEAR     34  27  75 CALM      29.99R
$$

WIZ051-052-058>065-066-070>072-301200-
SOUTHEAST WISCONSIN

CITY           SKY/WX    TMP DP  RH WIND       PRES   REMARKS
MILWAUKEE      CLEAR     36  28  73 W7        29.96R WCI  30
WAUKESHA       CLEAR     34  27  75 W7        29.96R WCI  28
MILWAUKEE/TIMM CLEAR     32  28  86 SW8       29.96R WCI  25
RACINE         CLEAR     35  27  72 W8        29.98R WCI  29
BURLINGTON     CLEAR     32  26  81 W5        29.98R WCI  27
KENOSHA        CLEAR     33  28  81 W8        29.97R WCI  26
FOND DU LAC    CLEAR     32  26  78 SW7       29.92R WCI  26
SHEBOYGAN      CLEAR     35  27  72 W8        29.90R WCI  29
WEST BEND      CLEAR     34  27  75 W7        29.92R WCI  28
JUNEAU         CLEAR     29  25  85 SW7       29.95S WCI  22
$$

LSZ147-162-301200-
LAKE SUPERIOR

STATION/POSITION TIME  TEMP    WIND        PRES    WAVE
                       AIR SEA DIR/SP/G            HT/PER
                 (UTC) (F)     (DEG/KT/KT) (MB)    (FT/S)
DEVILS ISLAND    1100   36     250/ 13/ 14 1011.8R
PORT WING        1040   38     250/  8/ 11 1012.2R
SAXON HARBOR     1000   37     230/  7/ 12 1010.8R
$$

LMZ867-665-643>646-301200-
LAKE MICHIGAN

STATION/POSITION TIME  TEMP    WIND        PRES    WAVE
                       AIR SEA DIR/SP/G            HT/PER
                 (UTC) (F)     (DEG/KT/KT) (MB)    (FT/S)
NORTHPORT PIER   1000   36     240/  6/ 23 1007.8S
SISTER BAY       1047   33     260/ 13/ 14   N/A
KEWAUNEE LAKESHO 1000   36     280/ 10/ 14 1009.6R
SHEBOYGAN LAKESH 1100   38     250/  9/ 11 1013.2R
PORT WASHINGTON  1000   38     270/  5/  9 1013.9
MILWAUKEE LAKESH 1100   39     270/  9/ 11   N/A
KENOSHA   LAKESH 1100   37     270/ 10/ 13 1015.2R
$$

TC  - TEMPERATURE IN CELSIUS
VSB - VISIBILITY IN STATUTE MILES
WCI - WIND CHILL INDEX
HX  - HEAT INDEX



USA.gov is the U.S. government's official web portal to all federal, state and local government web resources and services.